Regional Weather Roundup
Issued by NWS

Home | Current Version | Previous Version | Graphics & Text | Print | Product List | Glossary On
Versions: 1 2 3 4 5 6 7 8 9 10 11 12 13 14 15 16 17 18 19 20 21 22 23 24 25 26 27 28 29 30 31 32 33 34 35 36 37 38 39 40 41 42 43 44 45 46 47 48 49 50
000
ASUS45 KTFX 291610
RWRMT
MONTANA REGIONAL WEATHER ROUNDUP
NATIONAL WEATHER SERVICE GREAT FALLS MT
1000 AM MDT WED JUL 29 2015

NOTE: "FAIR" INDICATES FEW OR NO CLOUDS BELOW 12000 FEET WITH NO
SIGNIFICANT WEATHER AND/OR OBSTRUCTIONS TO VISIBILITY.

MTZ001>007-043-291700-
WEST OF THE DIVIDE

CITY           SKY/WX    TMP DP  RH WIND       PRES   REMARKS
KALISPELL      SUNNY     63  46  54 SE5       30.25F
MISSOULA       SUNNY     57  42  57 SE3       30.33F
BUTTE          SUNNY     56  37  49 CALM      30.39S
MULLAN PASS    SUNNY     59  35  40 CALM      30.37S
DEER LODGE       N/A     61  43  51 CALM      30.39S
EUREKA           N/A     64  45  48 CALM      30.23F
HAMILTON         N/A     63  39  42 S5        30.32F
LIBBY            N/A     61  46  59 CALM      30.25F
$$

MTZ008-052>055-291700-
SOUTHWEST MONTANA

CITY           SKY/WX    TMP DP  RH WIND       PRES   REMARKS
BOZEMAN        SUNNY     62  42  47 CALM      30.35S
DILLON         SUNNY     56  42  59 W3        30.37S
W YELLOWSTONE  SUNNY     48  37  66 CALM      30.45F
TWIN BRIDGES     N/A     57  42  57 S3        30.31S
$$

MTZ009-010-012-014-046-048-049-054-291700-
EAST SLOPES AND CENTRAL MONTANA

CITY           SKY/WX    TMP DP  RH WIND       PRES   REMARKS
CUT BANK       SUNNY     70  36  28 W14       30.20F
GREAT FALLS    SUNNY     69  40  34 SW13      30.23F
MALMSTROM AFB  SUNNY     68  41  37 SW17      30.23F
HELENA         SUNNY     66  43  43 NE6       30.29F
$$

MTZ011-013-016-021-045-047-050-051-291700-
NORTH CENTRAL MONTANA

CITY           SKY/WX    TMP DP  RH WIND       PRES   REMARKS
HAVRE          SUNNY     66  47  50 SW16      30.17S
LEWISTOWN      SUNNY     67  41  38 W12       30.26F
CHINOOK          N/A     70  46  43 W10G18    30.15F
FORT BENTON      N/A     72  43  35 SW9       30.21S
$$

MTZ017>020-022>027-061-062-291700-
NORTHEAST MONTANA

CITY           SKY/WX    TMP DP  RH WIND       PRES   REMARKS
GLASGOW        SUNNY     71  48  43 W13       30.13S
JORDAN           N/A     72  45  37 NW16      30.17S
SIDNEY         PTSUNNY  N/A N/A N/A W16       30.09R
WOLF POINT     SUNNY     72  51  47 W13       30.12R
MALTA            N/A     70  50  49 W12       30.10R
PLENTYWOOD       N/A     70  54  56 W17G23    30.05R
POPLAR           N/A     70  54  56 W10       30.10F
$$

MTZ028>42-056>058-291700-
SOUTHCENTRAL AND SOUTHEAST MONTANA

CITY           SKY/WX    TMP DP  RH WIND       PRES   REMARKS
BAKER          MOSUNNY   69  42  37 W13       30.19S
BILLINGS       SUNNY     65  40  39 SW13      30.28S
LIVINGSTON     SUNNY     67  36  31 W15       30.32S
MILES CITY     SUNNY     72  44  36 W9        30.19S
FORSYTH          N/A     72  41  33 W10       30.21S
LAUREL           N/A     68  38  33 SW8       30.24F
ROUNDUP          N/A     69  39  33 S5        30.14F
$$

REGIONAL REPORTS...DAKOTAS

CITY           SKY/WX    TMP DP  RH WIND       PRES   REMARKS
WILLISTON      PTSUNNY   72  51  47 W17       30.05R
MINOT          MOSUNNY   73  52  47 W22G30    29.93S
DICKINSON      PTSUNNY   70  46  42 W23G30    30.10R
BEACH          FAIR      70  45  40 W17G24    30.16R
CROSBY         FAIR      72  54  53 W20       30.00S
BISMARCK       SUNNY     75  49  39 W20G33    30.02S
GRAND FORKS    MOSUNNY   75  54  47 W30G38    29.73R
FARGO          SUNNY     76  56  49 W26G36    29.84R
BUFFALO SD       N/A     75  39  27 W22G28    30.14R
RAPID CITY     SUNNY     76  41  28 W13       30.26S
$$

REGIONAL REPORTS...WYOMING/IDAHO/WASHINGTON

CITY           SKY/WX    TMP DP  RH WIND       PRES   REMARKS
GILLETTE       SUNNY     71  34  25 SW7       30.31F
SHERIDAN       SUNNY     74  35  24 N6        30.29F
BUFFALO WY     SUNNY     69  34  27 S12       30.34F
CODY           SUNNY     66  34  30 W8        30.34S
YELLOWSTONE LA   N/A     50  34  54 VRB5      30.51S
IDAHO FALLS    SUNNY     62  39  42 VRB3      30.37S
SALMON         SUNNY     55  45  67 CALM      30.36F
BOISE          SUNNY     73  37  27 E3        30.26S
SPOKANE        MOSUNNY   71  40  32 S6        30.22S
$$

REGIONAL REPORTS...ALBERTA

CITY           SKY/WX    TMP DP  RH WIND       PRES   REMARKS
EDMONTON       MOSUNNY   64  48  55 W8        30.04S
CALGARY        PTSUNNY   66  39  37 SW7       30.13F
LETHBRIDGE     MOSUNNY   70  43  37 W13G22    30.15F
MEDICINE HAT   MOSUNNY   68  50  52 S14       30.11F
WATERTON GATE    N/A     68  41  37 W15G24      N/A
ONEFOUR          N/A     66  46  48 NW14        N/A
$$

REGIONAL REPORTS...SASKATCHEWAN

CITY           SKY/WX    TMP DP  RH WIND       PRES   REMARKS
SWIFT CURRENT  SUNNY     68  50  52 NW17      30.07S
REGINA         MOSUNNY   68  57  68 W17       29.96S
SASKATOON      MOSUNNY   68  54  60 W18G25    29.94S
CYPRESS HILLS    N/A     66  45  45 W6          N/A
VAL MARIE        N/A     72  52  49 NW9         N/A
ROCKGLEN         N/A     68  50  52 W16G23      N/A
ASSINIBOIA       N/A     68  48  49 W9          N/A
$$



USA.gov is the U.S. government's official web portal to all federal, state and local government web resources and services.